sat.trackr.live / text

‹ back to catalog

STARLINK-34363

NORAD 64497 · 2025-133AB

PAYLOAD ACTIVE UNKNOWN

§ Identity

Operator
Country
US
Launch date
2025-06-23
Launch site
AFETR
Launch vehicle
Mass (kg)
RCS (m²)

Purposes: comms

External: N2YO · Heavens-Above · Gunter

§ Orbital elements

Epoch: 2026-09-20T06:23:11.825376Z

Period
93.85 min
Inclination
53.1595°
Eccentricity
0.0001483
Mean motion
15.34402284 rev/d
Perigee alt
461.7 km
Apogee alt
463.7 km
Semi-major
6,840.8 km
B*
4.9383e-4
RAAN
286.9927°
Arg perigee
88.3652°
Mean anomaly
271.7520°
Rev number
7,106

§ Raw data

STARLINK-343631 64497U 25133AB  26263.26610909  .00016346  00000+0  49383-3 0  99952 64497  53.1595 286.9927 0001483  88.3652 271.7520 15.34402284 71062

JSON: /api/v1/satellites/64497 · /tle

For live sub-satellite position, see the globe view (requires WebGL).

§ Visibility from observer

Set your observer location to see the next 7 days of passes ≥ 10°. The values pass through the URL so the page stays shareable.

No JS? Fill the form by hand. The geolocation button needs JavaScript.